| time (UTC) | temp C | wind direction | speed KPH | gust KPH | rain 1hr cm | rain 24hr cm | rain mn cm | humidity % | barometer mb |
| 20260507161931 | 12 | 215 | 8.0 | 0.0 | 0.00 | 0.00 | 0.00 | 59 | 1005.7 |
| 20260507161853 | 12 | 226 | 8.0 | 0.0 | 0.00 | 0.00 | 0.00 | 58 | 1005.7 |
| 20260507161521 | 11 | 256 | 6.4 | 0.0 | 0.00 | 0.00 | 0.00 | 57 | 1006.2 |
| 20260507160438 | 12 | 244 | 8.0 | 0.0 | 0.00 | 0.00 | 0.00 | 57 | 1005.8 |
| 20260507160347 | 12 | 328 | 8.0 | 0.0 | 0.00 | 0.00 | 0.00 | 57 | 1005.8 |
| 20260507160108 | 12 | 223 | 8.0 | 0.0 | 0.00 | 0.00 | 0.00 | 60 | 1006.2 |
| 20260507154940 | 12 | 217 | 8.0 | 0.0 | 0.00 | 0.00 | 0.00 | 57 | 1006.1 |
| 20260507154511 | 12 | 69 | 8.0 | 0.0 | 0.00 | 0.00 | 0.00 | 59 | 1006.2 |
| 20260507153405 | 12 | 236 | 8.0 | 0.0 | 0.00 | 0.00 | 0.00 | 59 | 1005.9 |
| 20260507153046 | 12 | 168 | 8.0 | 0.0 | 0.00 | 0.00 | 0.00 | 63 | 1006.1 |
| 20260507151942 | 12 | 270 | 9.7 | 0.0 | 0.00 | 0.00 | 0.00 | 61 | 1006.0 |
| 20260507151857 | 12 | 269 | 9.7 | 0.0 | 0.00 | 0.00 | 0.00 | 64 | 1006.0 |
| 20260507151556 | 11 | 256 | 8.0 | 0.0 | 0.00 | 0.00 | 0.00 | 64 | 1006.4 |
| 20260507150406 | 11 | 271 | 11.3 | 0.0 | 0.00 | 0.00 | 0.00 | 70 | 1006.0 |
| 20260507150002 | 11 | 262 | 9.7 | 0.0 | 0.00 | 0.00 | 0.00 | 73 | 1006.3 |
| 20260507144900 | 11 | 271 | 6.4 | 0.0 | 0.00 | 0.00 | 0.00 | 75 | 1006.2 |
| 20260507144544 | 11 | 240 | 4.8 | 0.0 | 0.00 | 0.00 | 0.00 | 77 | 1006.4 |
| 20260507143440 | 11 | 302 | 4.8 | 0.0 | 0.00 | 0.00 | 0.00 | 80 | 1006.1 |
| 20260507143401 | 10 | 290 | 4.8 | 0.0 | 0.00 | 0.00 | 0.00 | 80 | 1006.2 |
| 20260507143010 | 10 | 261 | 6.4 | 0.0 | 0.00 | 0.00 | 0.00 | 82 | 1006.5 |
| 20260507141909 | 10 | 22 | 3.2 | 0.0 | 0.00 | 0.00 | 0.00 | 78 | 1006.1 |
| 20260507141552 | 10 | 284 | 3.2 | 0.0 | 0.00 | 0.00 | 0.00 | 77 | 1006.3 |
| 20260507140408 | 11 | 178 | 4.8 | 0.0 | 0.00 | 0.00 | 0.00 | 80 | 1006.0 |
| 20260507140003 | 10 | 216 | 4.8 | 0.0 | 0.00 | 0.00 | 0.00 | 77 | 1006.3 |
| 20260507134847 | 10 | 275 | 3.2 | 0.0 | 0.00 | 0.00 | 0.00 | 80 | 1006.1 |
| 20260507134501 | 10 | 200 | 3.2 | 0.0 | 0.00 | 0.00 | 0.00 | 81 | 1006.3 |
| 20260507133359 | 10 | 218 | 3.2 | 0.0 | 0.00 | 0.00 | 0.00 | 80 | 1006.3 |
| 20260507133043 | 10 | 267 | 3.2 | 0.0 | 0.00 | 0.00 | 0.00 | 82 | 1006.7 |
| 20260507131940 | 10 | 215 | 4.8 | 0.0 | 0.00 | 0.00 | 0.00 | 84 | 1006.5 |
| 20260507131622 | 9 | 241 | 4.8 | 0.0 | 0.00 | 0.00 | 0.00 | 84 | 1006.8 |
| 20260507130440 | 9 | 205 | 4.8 | 0.0 | 0.00 | 0.00 | 0.00 | 85 | 1006.6 |
| 20260507130048 | 8 | 179 | 4.8 | 0.0 | 0.00 | 0.00 | 0.00 | 86 | 1006.9 |
| 20260507124947 | 9 | 360 | 6.4 | 0.0 | 0.00 | 0.00 | 0.00 | 84 | 1006.6 |
| 20260507124903 | 9 | 263 | 6.4 | 0.0 | 0.00 | 0.00 | 0.00 | 85 | 1006.6 |
| 20260507124537 | 9 | 223 | 4.8 | 0.0 | 0.00 | 0.00 | 0.00 | 85 | 1006.8 |
| 20260507123010 | 8 | 306 | 3.2 | 0.0 | 0.00 | 0.00 | 0.00 | 86 | 1006.7 |
| 20260507121906 | 8 | 113 | 3.2 | 0.0 | 0.00 | 0.00 | 0.00 | 88 | 1006.5 |
| 20260507121541 | 8 | 18 | 3.2 | 0.0 | 0.00 | 0.00 | 0.00 | 89 | 1006.7 |
| 20260507120356 | 8 | 216 | 3.2 | 0.0 | 0.00 | 0.00 | 0.00 | 90 | 1006.7 |
| 20260507120042 | 7 | 261 | 1.6 | 0.0 | 0.00 | 0.00 | 0.00 | 90 | 1006.9 |
| 20260507114938 | 7 | 235 | 3.2 | 0.0 | 0.00 | 0.00 | 0.00 | 91 | 1006.5 |
| 20260507114856 | 7 | 235 | 3.2 | 0.0 | 0.00 | 0.00 | 0.00 | 92 | 1006.5 |
| 20260507114552 | 7 | 213 | 1.6 | 0.0 | 0.00 | 0.00 | 0.00 | 92 | 1006.8 |
| 20260507113349 | 7 | 250 | 3.2 | 0.0 | 0.00 | 0.00 | 0.00 | 93 | 1006.6 |
| 20260507113118 | 7 | 265 | 3.2 | 0.0 | 0.00 | 0.00 | 0.00 | 94 | 1006.8 |
| 20260507111846 | 6 | 254 | 1.6 | 0.0 | 0.00 | 0.00 | 0.00 | 95 | 1006.7 |
| 20260507111532 | 6 | 245 | 0.0 | 0.0 | 0.00 | 0.00 | 0.00 | 96 | 1006.8 |
| 20260507110051 | 5 | 236 | 1.6 | 0.0 | 0.00 | 0.00 | 0.00 | 98 | 1006.7 |
| 20260507104849 | 5 | 239 | 3.2 | 0.0 | 0.00 | 0.00 | 0.00 | 98 | 1006.4 |
| 20260507104558 | 5 | 242 | 3.2 | 0.0 | 0.00 | 0.00 | 0.00 | 98 | 1006.5 |
| 20260507103346 | 5 | 232 | 1.6 | 0.0 | 0.00 | 0.00 | 0.00 | 98 | 1006.2 |
| 20260507103049 | 5 | 229 | 1.6 | 0.0 | 0.00 | 0.00 | 0.00 | 98 | 1006.3 |
| 20260507101847 | 5 | 229 | 1.6 | 0.0 | 0.00 | 0.00 | 0.00 | 98 | 1006.2 |
| 20260507101530 | 4 | 229 | 1.6 | 0.0 | 0.00 | 0.00 | 0.00 | 98 | 1006.5 |
| 20260507100055 | 4 | 229 | 0.0 | 0.0 | 0.00 | 0.00 | 0.00 | 98 | 1006.5 |
| 20260507094844 | 4 | 229 | 0.0 | 0.0 | 0.00 | 0.00 | 0.00 | 98 | 1006.5 |
| 20260507094552 | 4 | 229 | 0.0 | 0.0 | 0.00 | 0.00 | 0.00 | 98 | 1006.7 |
| 20260507093346 | 5 | 229 | 3.2 | 0.0 | 0.00 | 0.00 | 0.00 | 98 | 1006.5 |
| 20260507093046 | 4 | 229 | 1.6 | 0.0 | 0.00 | 0.00 | 0.00 | 98 | 1006.7 |
| 20260507091842 | 5 | 213 | 0.0 | 0.0 | 0.00 | 0.00 | 0.00 | 98 | 1006.7 |
| 20260507091548 | 5 | 213 | 0.0 | 0.0 | 0.00 | 0.00 | 0.00 | 98 | 1006.8 |
| 20260507090342 | 5 | 213 | 1.6 | 0.0 | 0.00 | 0.00 | 0.00 | 98 | 1006.3 |
| 20260507090046 | 5 | 213 | 1.6 | 0.0 | 0.00 | 0.00 | 0.00 | 98 | 1006.3 |
| 20260507084842 | 5 | 213 | 0.0 | 0.0 | 0.00 | 0.00 | 0.00 | 98 | 1006.0 |
| 20260507084552 | 5 | 213 | 0.0 | 0.0 | 0.00 | 0.00 | 0.00 | 98 | 1006.2 |
| 20260507083339 | 5 | 213 | 0.0 | 0.0 | 0.00 | 0.00 | 0.00 | 98 | 1006.1 |
| 20260507083058 | 5 | 213 | 0.0 | 0.0 | 0.00 | 0.00 | 0.00 | 98 | 1006.3 |
| 20260507081855 | 5 | 213 | 1.6 | 0.0 | 0.00 | 0.00 | 0.00 | 98 | 1006.0 |
| 20260507081538 | 5 | 213 | 1.6 | 0.0 | 0.00 | 0.00 | 0.00 | 98 | 1005.7 |
| 20260507080002 | 5 | 223 | 1.6 | 0.0 | 0.00 | 0.00 | 0.00 | 98 | 1006.2 |
| 20260507074857 | 6 | 221 | 1.6 | 0.0 | 0.00 | 0.00 | 0.00 | 98 | 1006.0 |
| 20260507074517 | 5 | 221 | 1.6 | 0.0 | 0.00 | 0.00 | 0.00 | 98 | 1006.0 |
| 20260507073023 | 5 | 68 | 1.6 | 0.0 | 0.00 | 0.00 | 0.00 | 98 | 1006.1 |
| 20260507071543 | 6 | 68 | 1.6 | 0.0 | 0.00 | 0.00 | 0.00 | 98 | 1005.6 |
| 20260507070357 | 6 | 266 | 1.6 | 0.0 | 0.00 | 0.00 | 0.00 | 98 | 1005.2 |
| 20260507070107 | 6 | 267 | 3.2 | 0.0 | 0.00 | 0.00 | 0.00 | 98 | 1005.5 |
| 20260507064852 | 6 | 214 | 4.8 | 0.0 | 0.00 | 0.00 | 0.00 | 98 | 1005.7 |
| 20260507064559 | 6 | 256 | 4.8 | 0.0 | 0.00 | 0.00 | 0.00 | 98 | 1005.6 |
| 20260507063353 | 6 | 223 | 3.2 | 0.0 | 0.00 | 0.00 | 0.00 | 98 | 1005.4 |
| 20260507063055 | 6 | 261 | 4.8 | 0.0 | 0.00 | 0.00 | 0.00 | 98 | 1005.6 |
| 20260507061849 | 6 | 249 | 3.2 | 0.0 | 0.00 | 0.00 | 0.00 | 98 | 1005.7 |
| 20260507061537 | 6 | 30 | 4.8 | 0.0 | 0.00 | 0.00 | 0.00 | 98 | 1005.6 |
| 20260507060347 | 6 | 273 | 4.8 | 0.0 | 0.00 | 0.00 | 0.00 | 98 | 1005.3 |
| 20260507060055 | 6 | 282 | 4.8 | 0.0 | 0.00 | 0.00 | 0.00 | 98 | 1005.5 |
| 20260507054849 | 6 | 247 | 4.8 | 0.0 | 0.00 | 0.00 | 0.00 | 98 | 1005.8 |
| 20260507054548 | 6 | 241 | 4.8 | 0.0 | 0.00 | 0.00 | 0.00 | 98 | 1005.8 |
| 20260507053345 | 7 | 276 | 4.8 | 0.0 | 0.00 | 0.00 | 0.00 | 98 | 1005.5 |
| 20260507053006 | 6 | 264 | 4.8 | 0.0 | 0.00 | 0.00 | 0.00 | 98 | 1005.3 |
| 20260507051546 | 7 | 200 | 3.2 | 0.0 | 0.00 | 0.00 | 0.00 | 99 | 1005.1 |
| 20260507050348 | 7 | 269 | 3.2 | 0.0 | 0.00 | 0.00 | 0.00 | 99 | 1005.2 |
| 20260507050103 | 7 | 263 | 4.8 | 0.0 | 0.00 | 0.00 | 0.00 | 99 | 1005.2 |
| 20260507044844 | 7 | 284 | 3.2 | 0.0 | 0.00 | 0.00 | 0.00 | 99 | 1005.2 |
| 20260507044503 | 7 | 301 | 4.8 | 0.0 | 0.00 | 0.00 | 0.00 | 99 | 1005.2 |
| 20260507043045 | 7 | 157 | 1.6 | 0.0 | 0.00 | 0.00 | 0.00 | 99 | 1005.5 |
| 20260507041842 | 7 | 151 | 1.6 | 0.0 | 0.00 | 0.00 | 0.00 | 98 | 1005.4 |
| 20260507041548 | 7 | 151 | 1.6 | 0.0 | 0.00 | 0.00 | 0.00 | 98 | 1005.4 |
| 20260507040343 | 7 | 232 | 3.2 | 0.0 | 0.00 | 0.00 | 0.00 | 98 | 1005.3 |
| 20260507040049 | 7 | 232 | 3.2 | 0.0 | 0.00 | 0.00 | 0.00 | 98 | 1005.4 |
| 20260507034844 | 8 | 252 | 3.2 | 0.0 | 0.00 | 0.00 | 0.81 | 98 | 1005.5 |
| 20260507034506 | 7 | 294 | 3.2 | 0.0 | 0.00 | 0.00 | 0.81 | 98 | 1005.2 |
| 20260507033003 | 8 | 235 | 1.6 | 0.0 | 0.00 | 0.00 | 0.81 | 99 | 1005.1 |
| 20260507031546 | 8 | 206 | 1.6 | 0.0 | 0.00 | 0.00 | 0.81 | 99 | 1005.1 |
| 20260507030007 | 8 | 218 | 1.6 | 0.0 | 0.00 | 0.00 | 0.81 | 99 | 1005.3 |
| 20260507024547 | 8 | 245 | 1.6 | 0.0 | 0.00 | 0.00 | 0.76 | 99 | 1005.0 |
| 20260507023342 | 9 | 12 | 3.2 | 0.0 | 0.00 | 0.00 | 0.74 | 98 | 1005.0 |
| 20260507023043 | 8 | 214 | 4.8 | 0.0 | 0.00 | 0.00 | 0.71 | 98 | 1004.7 |
| 20260507021840 | 9 | 273 | 6.4 | 0.0 | 0.00 | 0.00 | 0.74 | 98 | 1005.1 |
| 20260507021554 | 9 | 281 | 6.4 | 0.0 | 0.00 | 0.00 | 0.71 | 98 | 1004.8 |
| 20260507020345 | 10 | 266 | 4.8 | 0.0 | 0.00 | 0.00 | 0.74 | 98 | 1004.6 |
| 20260507020045 | 10 | 261 | 4.8 | 0.0 | 0.00 | 0.00 | 0.71 | 98 | 1004.3 |
| 20260507014840 | 10 | 246 | 6.4 | 0.0 | 0.00 | 0.00 | 0.71 | 98 | 1004.6 |
| 20260507014545 | 10 | 261 | 6.4 | 0.0 | 0.00 | 0.00 | 0.71 | 98 | 1004.3 |
| 20260507013341 | 11 | 282 | 6.4 | 0.0 | 0.00 | 0.00 | 0.69 | 99 | 1004.2 |
| 20260507013100 | 11 | 271 | 4.8 | 0.0 | 0.00 | 0.00 | 0.69 | 99 | 1004.0 |
| 20260507011856 | 11 | 199 | 4.8 | 0.0 | 0.00 | 0.00 | 0.69 | 99 | 1004.0 |
| 20260507011543 | 11 | 304 | 4.8 | 0.0 | 0.00 | 0.00 | 0.66 | 99 | 1003.9 |
| 20260507010357 | 12 | 234 | 4.8 | 0.0 | 0.00 | 0.00 | 0.66 | 99 | 1004.1 |
| 20260507004856 | 12 | 269 | 6.4 | 0.0 | 0.00 | 0.00 | 0.66 | 99 | 1004.0 |
| 20260507004557 | 12 | 275 | 6.4 | 0.0 | 0.00 | 0.00 | 0.66 | 99 | 1003.7 |
| 20260507003353 | 12 | 234 | 6.4 | 0.0 | 0.00 | 0.00 | 0.64 | 99 | 1003.7 |
| 20260507003053 | 12 | 319 | 6.4 | 0.0 | 0.00 | 0.00 | 0.61 | 99 | 1003.5 |
| 20260507001849 | 14 | 297 | 3.2 | 0.0 | 0.00 | 0.00 | 0.51 | 100 | 1003.4 |
| 20260507001534 | 13 | 261 | 3.2 | 0.0 | 0.00 | 0.00 | 0.51 | 100 | 1003.0 |
| 20260507000354 | 14 | 250 | 4.8 | 0.0 | 0.00 | 0.00 | 0.46 | 100 | 1003.1 |
| 20260507000013 | 13 | 236 | 4.8 | 0.0 | 0.00 | 0.00 | 0.46 | 100 | 1002.8 |
| 20260506234605 | 13 | 246 | 4.8 | 0.0 | 0.00 | 0.00 | 0.43 | 100 | 1002.6 |
| 20260506233348 | 14 | 196 | 4.8 | 0.0 | 0.00 | 0.00 | 0.43 | 100 | 1003.0 |
| 20260506233050 | 13 | 287 | 6.4 | 0.0 | 0.00 | 0.00 | 0.43 | 100 | 1002.7 |
| 20260506231848 | 14 | 267 | 6.4 | 0.0 | 0.00 | 0.00 | 0.43 | 99 | 1002.9 |
| 20260506231531 | 14 | 248 | 6.4 | 0.0 | 0.00 | 0.00 | 0.43 | 99 | 1002.7 |
| 20260506230349 | 14 | 235 | 4.8 | 0.0 | 0.00 | 0.00 | 0.43 | 99 | 1002.9 |
| 20260506230048 | 14 | 200 | 4.8 | 0.0 | 0.00 | 0.00 | 0.43 | 99 | 1002.7 |
| 20260506224845 | 15 | 272 | 4.8 | 0.0 | 0.00 | 0.00 | 0.43 | 99 | 1002.9 |
| 20260506224548 | 14 | 192 | 4.8 | 0.0 | 0.00 | 0.00 | 0.43 | 99 | 1002.7 |
| 20260506223345 | 15 | 196 | 4.8 | 0.0 | 0.00 | 0.00 | 0.43 | 99 | 1003.0 |
| 20260506223049 | 14 | 154 | 6.4 | 0.0 | 0.00 | 0.00 | 0.43 | 99 | 1002.7 |
| 20260506221842 | 15 | 203 | 4.8 | 0.0 | 0.00 | 0.00 | 0.43 | 99 | 1002.9 |
| 20260506221544 | 15 | 188 | 4.8 | 0.0 | 0.00 | 0.00 | 0.43 | 99 | 1002.6 |
| 20260506220046 | 15 | 215 | 6.4 | 0.0 | 0.00 | 0.00 | 0.43 | 99 | 1002.8 |
| 20260506214843 | 15 | 207 | 4.8 | 0.0 | 0.00 | 0.00 | 0.43 | 99 | 1003.1 |
| 20260506214557 | 15 | 217 | 4.8 | 0.0 | 0.00 | 0.00 | 0.43 | 99 | 1002.8 |
| 20260506213355 | 15 | 190 | 6.4 | 0.0 | 0.00 | 0.00 | 0.43 | 99 | 1003.1 |
| 20260506213051 | 15 | 263 | 4.8 | 0.0 | 0.00 | 0.00 | 0.43 | 99 | 1002.8 |
| 20260506211848 | 15 | 213 | 4.8 | 0.0 | 0.00 | 0.00 | 0.43 | 99 | 1003.3 |
| 20260506211547 | 15 | 203 | 4.8 | 0.0 | 0.00 | 0.00 | 0.43 | 99 | 1003.0 |
| 20260506210347 | 15 | 188 | 4.8 | 0.0 | 0.00 | 0.00 | 0.43 | 99 | 1003.3 |
| 20260506210042 | 15 | 197 | 4.8 | 0.0 | 0.00 | 0.00 | 0.43 | 99 | 1003.1 |
| 20260506204839 | 15 | 195 | 6.4 | 0.0 | 0.00 | 0.00 | 0.43 | 99 | 1003.3 |
| 20260506204512 | 15 | 213 | 4.8 | 0.0 | 0.00 | 0.00 | 0.43 | 99 | 1003.0 |
| 20260506203052 | 15 | 229 | 4.8 | 0.0 | 0.00 | 0.00 | 0.43 | 99 | 1003.2 |
| 20260506201847 | 15 | 202 | 3.2 | 0.0 | 0.00 | 0.00 | 0.41 | 99 | 1003.6 |
| 20260506201553 | 15 | 186 | 3.2 | 0.0 | 0.00 | 0.00 | 0.41 | 99 | 1003.4 |
| 20260506200345 | 15 | 192 | 3.2 | 0.0 | 0.00 | 0.00 | 0.41 | 99 | 1004.0 |
| 20260506200112 | 15 | 178 | 1.6 | 0.0 | 0.00 | 0.00 | 0.41 | 99 | 1003.6 |
| 20260506194855 | 15 | 202 | 3.2 | 0.0 | 0.00 | 0.00 | 0.41 | 99 | 1004.0 |
| 20260506194611 | 15 | 213 | 3.2 | 0.0 | 0.00 | 0.00 | 0.38 | 99 | 1003.7 |
| 20260506193351 | 15 | 281 | 3.2 | 0.0 | 0.00 | 0.00 | 0.36 | 98 | 1004.1 |
| 20260506193046 | 15 | 253 | 3.2 | 0.0 | 0.00 | 0.00 | 0.33 | 98 | 1003.8 |
| 20260506191843 | 15 | 182 | 3.2 | 0.0 | 0.00 | 0.00 | 0.28 | 98 | 1004.2 |
| 20260506191546 | 15 | 241 | 3.2 | 0.0 | 0.00 | 0.00 | 0.28 | 98 | 1003.7 |
| 20260506190343 | 15 | 210 | 6.4 | 0.0 | 0.00 | 0.00 | 0.25 | 98 | 1004.4 |
| 20260506190047 | 15 | 196 | 4.8 | 0.0 | 0.00 | 0.00 | 0.25 | 98 | 1003.9 |
| 20260506184844 | 15 | 210 | 4.8 | 0.0 | 0.00 | 0.00 | 0.23 | 97 | 1004.7 |
| 20260506184544 | 15 | 215 | 4.8 | 0.0 | 0.00 | 0.00 | 0.20 | 97 | 1004.3 |
| 20260506183340 | 15 | 235 | 4.8 | 0.0 | 0.00 | 0.00 | 0.20 | 97 | 1004.9 |
| 20260506183002 | 15 | 206 | 4.8 | 0.0 | 0.00 | 0.00 | 0.20 | 97 | 1004.6 |
| 20260506181858 | 15 | 234 | 4.8 | 0.0 | 0.00 | 0.00 | 0.20 | 97 | 1005.1 |
| 20260506181547 | 15 | 208 | 4.8 | 0.0 | 0.00 | 0.00 | 0.18 | 97 | 1004.7 |
| 20260506180357 | 15 | 259 | 4.8 | 0.0 | 0.00 | 0.00 | 0.15 | 96 | 1005.4 |
| 20260506180056 | 15 | 230 | 4.8 | 0.0 | 0.00 | 0.00 | 0.15 | 96 | 1005.0 |
| 20260506174854 | 15 | 207 | 4.8 | 0.0 | 0.00 | 0.00 | 0.10 | 95 | 1005.5 |
| 20260506174602 | 15 | 244 | 4.8 | 0.0 | 0.00 | 0.00 | 0.10 | 95 | 1005.0 |
| 20260506173354 | 16 | 268 | 3.2 | 0.0 | 0.00 | 0.00 | 0.05 | 94 | 1005.5 |
| 20260506173015 | 16 | 209 | 3.2 | 0.0 | 0.00 | 0.00 | 0.05 | 93 | 1005.1 |
| 20260506171543 | 16 | 288 | 3.2 | 0.0 | 0.00 | 0.00 | 0.03 | 90 | 1005.0 |
| 20260506170353 | 17 | 262 | 3.2 | 0.0 | 0.00 | 0.00 | 0.00 | 87 | 1005.4 |
| 20260506170016 | 17 | 262 | 3.2 | 0.0 | 0.00 | 0.00 | 0.00 | 86 | 1004.8 |
| 20260506164514 | 17 | 261 | 4.8 | 0.0 | 0.00 | 0.00 | 0.00 | 84 | 1005.0 |
| 20260506163055 | 17 | 257 | 4.8 | 0.0 | 0.00 | 0.00 | 0.00 | 82 | 1005.0 |